[[{"header":{"parameterUnit":"m.s-1","parameterCategory":1,"la1":30.2991,"la2":30.254,"lo1":-89.0895,"lo2":-89.0444,"dy":0.0017,"dx":0.0017,"nx":28,"ny":28,"refTime":"2024-06-05T09:00:00:Z","depth":0,"parameterNumber":2,"parameterNumberName":"U-component_of_WINDS"},"data":[0,0,0,0,0,0,0,0,0,0,0,0,0,0,0,0,0,0,0,0,0,0,0,0,0,0,0,0,0,0,0,0,0,0,0,0,0,0,0,0,0,0,0,0,0,0,0,0,0,0,0,0,0,0,0,0,0,0,4.2756,4.2757,0,4.2858,4.286,4.2861,4.2856,4.2855,4.2853,4.2852,4.2953,4.2957,4.2961,0,0,0,0,0,0,0,0,0,0,0,0,0,4.2555,4.2559,4.2756,4.2757,4.2759,4.2858,4.286,4.2861,4.2856,4.2855,4.2853,4.2851,4.2952,4.2957,4.2962,0,0,0,0,0,0,0,0,0,0,0,0,0,4.2648,4.256,4.2756,4.2768,4.2771,4.2858,4.286,4.2861,4.2857,4.2855,4.2853,4.2851,4.2951,4.2956,4.2962,4.3043,0,0,4.2981,4.2984,0,0,0,0,0,0,0,0,4.2643,4.2656,4.2765,4.2768,4.277,4.2842,4.2826,4.2922,4.2857,4.2824,4.2852,4.2849,4.2918,4.2927,4.295,4.3048,4.3052,4.2981,4.2985,4.2988,4.2989,0,0,0,0,0,0,0,4.2636,4.2651,4.2796,4.2767,4.277,4.2768,4.2779,4.2844,4.2882,4.2827,4.2827,4.2839,4.2919,4.2945,4.2953,4.3053,4.2981,4.2987,4.299,4.2993,4.3223,4.3225,0,0,0,0,0,0,4.2628,4.2646,4.2793,4.2799,4.27,4.2774,4.2786,4.2821,4.2881,4.2888,4.2841,4.2838,4.2935,4.2946,4.2956,4.3055,4.2988,4.2993,4.2997,4.322,4.3223,4.3226,0,0,0,0,0,0,4.2623,4.2641,4.2789,4.2723,4.2741,4.278,4.2819,4.2825,4.285,4.2892,4.2898,4.286,4.2934,4.2948,4.3022,4.3058,4.2996,4.3002,4.3217,4.3221,4.3225,4.3252,0,0,0,0,0,0,4.2618,4.2639,4.2671,4.2724,4.2745,4.2853,4.2822,4.2828,4.2861,4.2859,4.2912,4.2918,4.2933,4.3013,4.3028,4.3066,4.3006,4.3214,4.3219,4.3223,4.3248,4.3256,4.3264,0,0,0,0,0,4.261,4.2673,4.2672,4.269,4.2785,4.2856,4.2868,4.2885,4.2864,4.2896,4.2922,4.2917,4.3052,4.302,4.3037,4.3077,4.3212,4.3218,4.3223,4.3245,4.3255,4.3263,0,0,0,0,0,0,4.2622,4.268,4.268,4.2762,4.2804,4.2855,4.2895,4.2895,4.2943,4.2939,4.2957,4.2969,4.3043,4.3068,4.3031,4.3159,4.3129,4.3138,4.314,4.315,4.3157,4.3149,4.3011,0,0,0,0,0,4.2634,4.2688,4.2735,4.2803,4.2825,4.2856,4.2888,4.2897,4.2941,4.2959,4.2991,4.3033,4.3085,4.3119,4.3169,4.3252,4.3264,4.3288,4.3296,4.3302,4.3309,4.3355,4.3367,4.3244,4.3244,4.3244,0,0,4.266,4.2698,4.273,4.2807,4.284,4.2895,4.2871,4.2929,4.2969,4.2967,4.3039,4.3065,4.3113,4.3192,4.3228,4.3215,4.3346,4.3309,4.3313,4.3318,4.3362,4.3374,4.3384,4.3248,4.3247,4.3247,0,0,4.2734,4.2769,4.2829,4.2864,4.2917,4.2938,4.2952,4.3004,4.3021,4.3094,4.3094,4.3142,4.3231,4.3266,4.3295,4.3385,4.3381,4.3401,4.344,4.3485,4.3494,4.3503,4.3535,4.3546,4.3408,4.3408,4.3408,0,4.2758,4.2841,4.286,4.2919,4.2953,4.2955,4.3017,4.3049,4.3115,4.3138,4.3122,4.3235,4.3267,4.3355,4.3377,4.3401,4.3418,4.3394,4.3492,4.3501,4.3509,4.3539,4.3551,4.341,4.341,4.341,4.3409,0,4.2869,4.2926,4.2969,4.3034,4.3072,4.3132,4.316,4.3197,4.3204,4.3226,4.3301,4.3341,4.3399,4.3421,4.3428,4.351,4.35,4.3488,4.3458,4.3522,4.3551,4.3563,4.3413,4.3412,4.3412,4.3411,0,0,4.2951,4.3028,4.3043,4.3073,4.3132,4.3176,4.3236,4.3295,4.3326,4.3372,4.3422,4.3499,4.3489,4.3522,4.3533,4.3573,4.3641,4.3556,4.3557,4.357,4.3734,4.3743,4.3756,4.364,4.3642,4.3644,4.373,0,4.3031,4.3139,4.3159,4.3253,4.3306,4.3311,4.3363,4.3404,4.3428,4.3476,4.3501,4.3555,4.3537,4.3558,4.3597,4.3625,4.3674,4.3619,4.3686,4.3689,4.3673,4.3771,4.378,4.3859,4.3742,4.3744,4.3745,0,4.3139,4.3189,4.3288,4.3341,4.3364,4.3411,4.3468,4.3514,4.3561,4.3575,4.3614,4.3621,4.3683,4.3652,4.3738,4.3699,4.3728,4.3746,4.375,4.3756,4.372,4.3779,4.3885,4.3896,4.3763,4.3762,4.376,0,4.3189,4.3281,4.3353,4.3378,4.3442,4.3475,4.3503,4.3548,4.3583,4.3632,4.3654,4.3709,4.3739,4.3782,4.3803,4.3778,4.3888,4.3858,4.3901,4.39,4.3922,4.392,4.4033,4.3942,4.3942,4.3942,4.3942,0,4.3275,4.3336,4.3376,4.342,4.3489,4.3511,4.3578,4.3605,4.3646,4.3695,4.3701,4.3747,4.3773,4.3823,4.384,4.3908,4.3922,4.3935,4.3938,4.3934,4.3932,4.3952,4.3947,4.3945,4.3945,4.3944,4.3943,0,4.3342,4.3371,4.345,4.3505,4.352,4.3568,4.3614,4.3657,4.3681,4.3743,4.3759,4.3796,4.3855,4.3881,4.3953,4.3964,4.4043,4.4043,4.4027,4.4028,4.4069,4.4064,4.4198,4.4216,4.4114,4.4115,4.4116,0,4.3395,4.3442,4.3502,4.3537,4.3566,4.362,4.3656,4.3681,4.3718,4.3776,4.3812,4.3871,4.392,4.4013,4.4046,4.4101,4.4102,4.4145,4.411,4.4105,4.4102,4.4099,4.4104,4.4151,4.4152,4.4153,4.4154,0,4.3486,4.3499,4.3551,4.3609,4.3652,4.3698,4.3743,4.3771,4.3802,4.3843,4.3904,4.3942,4.4017,4.4075,4.4133,4.4161,4.4163,4.4165,4.4177,4.4173,4.4161,4.4168,4.4043,4.4161,4.416,4.416,4.4159,4.4159,4.3547,4.3589,4.3639,4.3697,4.3734,4.3777,4.382,4.3851,4.3902,4.3966,4.3977,4.4042,4.4089,4.4167,4.4197,4.4248,4.4237,4.4255,4.426,4.4264,4.4266,4.4154,4.4258,4.4258,4.4258,4.4258,4.4258,0,4.3638,4.3671,4.3724,4.3788,4.3834,4.3834,4.3884,4.3922,4.398,4.4024,4.4073,4.4143,4.4201,4.4239,4.4297,4.433,4.4332,4.4344,4.4341,4.4348,4.4272,4.4256,4.4342,4.4342,4.4342,4.4341,4.4341,4.4341,4.3691,4.3763,4.3782,4.3872,4.3904,4.3969,4.3998,4.4037,4.4073,4.4152,4.42,4.4225,4.4267,4.4329,4.4381,4.4391,4.4412,4.4424,4.4433,4.4362,4.4353,4.4345,4.4329,4.4429,4.4429,4.4504,4.4505,4.4506]},{"header":{"parameterUnit":"m.s-1","parameterCategory":1,"la1":30.2991,"la2":30.254,"lo1":-89.0895,"lo2":-89.0444,"dy":0.0017,"dx":0.0017,"nx":28,"ny":28,"refTime":"2024-06-05T09:00:00:Z","depth":0,"parameterNumber":3,"parameterNumberName":"V-component_of_WINDS"},"data":[0,0,0,0,0,0,0,0,0,0,0,0,0,0,0,0,0,0,0,0,0,0,0,0,0,0,0,0,0,0,0,0,0,0,0,0,0,0,0,0,0,0,0,0,0,0,0,0,0,0,0,0,0,0,0,0,0,0,0.8229,0.823,0,0.8343,0.8344,0.8345,0.8357,0.8356,0.8355,0.8354,0.8474,0.8478,0.8482,0,0,0,0,0,0,0,0,0,0,0,0,0,0.8025,0.8029,0.8229,0.823,0.8232,0.8342,0.8344,0.8346,0.8357,0.8356,0.8354,0.8353,0.8473,0.8478,0.8483,0,0,0,0,0,0,0,0,0,0,0,0,0,0.8124,0.803,0.8229,0.8251,0.8254,0.8342,0.8344,0.8346,0.8358,0.8356,0.8354,0.8352,0.8471,0.8477,0.8483,0.8559,0,0,0.8503,0.8506,0,0,0,0,0,0,0,0,0.8118,0.8131,0.8246,0.8249,0.8253,0.8334,0.8316,0.8417,0.8358,0.8318,0.8354,0.8351,0.8429,0.8439,0.8464,0.8564,0.8569,0.8504,0.8508,0.851,0.8512,0,0,0,0,0,0,0,0.8111,0.8126,0.8274,0.8248,0.8252,0.8256,0.8268,0.8335,0.8382,0.8322,0.8323,0.8336,0.8431,0.8458,0.8467,0.8571,0.8504,0.8509,0.8513,0.8516,0.8739,0.8741,0,0,0,0,0,0,0.81,0.8121,0.827,0.8277,0.818,0.8261,0.8275,0.831,0.8382,0.8391,0.8337,0.8336,0.8448,0.8459,0.8471,0.8565,0.851,0.8516,0.852,0.8737,0.874,0.8742,0,0,0,0,0,0,0.8095,0.8113,0.8266,0.8199,0.8219,0.8266,0.8306,0.8313,0.834,0.8393,0.8402,0.8356,0.8447,0.8462,0.8537,0.8569,0.8519,0.8525,0.8735,0.8738,0.8741,0.8751,0,0,0,0,0,0,0.8089,0.8111,0.814,0.82,0.8222,0.8328,0.8308,0.8316,0.8351,0.835,0.8414,0.8422,0.8447,0.8527,0.8543,0.8577,0.853,0.8732,0.8736,0.874,0.8748,0.8754,0.876,0,0,0,0,0,0.8082,0.8139,0.8141,0.8159,0.8259,0.833,0.8343,0.8369,0.8353,0.8383,0.8417,0.842,0.8562,0.8534,0.8553,0.8589,0.873,0.8735,0.8739,0.8746,0.8753,0.8759,0,0,0,0,0,0,0.8083,0.8147,0.815,0.8228,0.8273,0.8332,0.837,0.8376,0.8428,0.8425,0.8456,0.847,0.8543,0.8573,0.8541,0.8666,0.8645,0.8653,0.8643,0.8651,0.8656,0.8648,0.8536,0,0,0,0,0,0.8092,0.8143,0.8197,0.826,0.8283,0.8322,0.8354,0.837,0.8419,0.8438,0.8478,0.8526,0.8582,0.8618,0.8672,0.8752,0.8767,0.8786,0.8792,0.8796,0.8804,0.8849,0.8859,0.8757,0.8757,0.8757,0,0,0.8111,0.8153,0.8184,0.8262,0.8299,0.8352,0.8339,0.8396,0.8436,0.8448,0.852,0.8551,0.8606,0.8684,0.8721,0.8712,0.8834,0.8802,0.8805,0.881,0.8855,0.8864,0.8873,0.876,0.876,0.8759,0,0,0.8175,0.8211,0.8268,0.8305,0.836,0.8386,0.8399,0.8457,0.8477,0.855,0.856,0.8609,0.8703,0.8743,0.8775,0.8852,0.8858,0.8869,0.8899,0.8943,0.8951,0.8959,0.8987,0.8997,0.8876,0.8876,0.8876,0,0.8193,0.8273,0.8297,0.8354,0.8388,0.8399,0.8457,0.8492,0.8563,0.8587,0.8576,0.8695,0.8733,0.882,0.8839,0.8865,0.8882,0.8863,0.8948,0.8956,0.8963,0.8991,0.9001,0.8877,0.8877,0.8877,0.8877,0,0.8292,0.8348,0.8387,0.8454,0.8493,0.855,0.8584,0.862,0.8632,0.8659,0.8734,0.878,0.8843,0.8865,0.8878,0.8954,0.8947,0.8941,0.8922,0.8973,0.9,0.901,0.8879,0.8878,0.8878,0.8878,0,0,0.8361,0.8439,0.8453,0.8484,0.8545,0.8589,0.8647,0.8708,0.8739,0.8788,0.8838,0.8917,0.8912,0.8949,0.8966,0.9004,0.9064,0.8994,0.8996,0.9007,0.9153,0.9158,0.917,0.9067,0.9069,0.9071,0.9148,0,0.8432,0.8535,0.8558,0.8647,0.8699,0.8709,0.876,0.8804,0.8831,0.888,0.8909,0.8966,0.8954,0.8976,0.9014,0.9048,0.9094,0.9043,0.9116,0.9118,0.9103,0.9183,0.9189,0.926,0.9159,0.9161,0.9162,0,0.853,0.8579,0.8673,0.8727,0.875,0.8795,0.8853,0.8899,0.8949,0.8966,0.9006,0.9019,0.9081,0.9056,0.9143,0.9108,0.9139,0.916,0.9163,0.9172,0.9144,0.9196,0.9283,0.9294,0.9178,0.9177,0.9176,0,0.8572,0.8661,0.8729,0.8755,0.882,0.8851,0.888,0.8928,0.8963,0.9014,0.9037,0.9095,0.9127,0.9171,0.92,0.9179,0.9284,0.9262,0.9301,0.9301,0.9325,0.9323,0.942,0.9342,0.9342,0.9341,0.9341,0,0.865,0.8707,0.8749,0.8791,0.8856,0.8881,0.8945,0.8974,0.9017,0.9065,0.9077,0.9123,0.9157,0.9208,0.923,0.9299,0.9313,0.9329,0.9335,0.9329,0.9327,0.9351,0.9348,0.9344,0.9344,0.9343,0.9343,0,0.8709,0.8739,0.8814,0.8868,0.8883,0.8929,0.8976,0.9018,0.9044,0.9106,0.9122,0.9163,0.9223,0.9255,0.9331,0.9346,0.9424,0.9426,0.9407,0.941,0.9448,0.9444,0.9564,0.9582,0.9491,0.9492,0.9492,0,0.8758,0.8802,0.8861,0.8894,0.8923,0.8975,0.9011,0.9038,0.9074,0.9134,0.9169,0.9229,0.9279,0.9375,0.9413,0.9471,0.9475,0.9513,0.9485,0.9477,0.9478,0.9476,0.9481,0.9519,0.952,0.9521,0.9521,0,0.8841,0.8854,0.8904,0.8959,0.9001,0.9046,0.9091,0.9117,0.9151,0.9192,0.9253,0.9291,0.9368,0.9428,0.9489,0.952,0.9527,0.953,0.9542,0.9538,0.9525,0.9534,0.9422,0.9527,0.9527,0.9526,0.9526,0.9526,0.8898,0.8938,0.8985,0.9041,0.9077,0.9118,0.916,0.9191,0.9242,0.9305,0.9318,0.9383,0.9432,0.9514,0.9546,0.9598,0.9591,0.9608,0.9613,0.9618,0.962,0.9515,0.9609,0.9609,0.9609,0.9609,0.9609,0,0.8983,0.9014,0.9065,0.9126,0.917,0.9171,0.922,0.9257,0.9314,0.9358,0.9406,0.9477,0.9535,0.9577,0.9637,0.967,0.9675,0.9685,0.9684,0.9691,0.9623,0.9606,0.968,0.968,0.968,0.968,0.968,0.968,0.9033,0.9101,0.9119,0.9205,0.9236,0.9298,0.9326,0.9365,0.9401,0.9478,0.9526,0.9552,0.9596,0.9659,0.9713,0.9724,0.9746,0.9756,0.9768,0.9703,0.9696,0.9689,0.9674,0.976,0.9761,0.9832,0.9833,0.9834]}]]